SCP
0 0 0 0 0 0 0 0 0 0 0 0 0 0 0 0 0 0 0 0 0 0 0 0 0 0 0 0 0 0 0 0 0 0 0 0 0 0 0 0 0 0 0 0 0 0 0 0 0 0 0 0 0 0
0 0 0 0 0 0 0 0 0 0 0 0 0 0 0 0 0 0 0 0 0 0 0 0 0 0 0 0 0 0 0 0 0 0 0 0 0 0 0 0 0 0 0 0 0 0 0 0 -0 0 0 0 0 0
0 0 0 0 0 0 0 0 0 0 0 0 0 0 0 0 0 0 0 0 0 0 0 0 0 0 0 0 0 0 0 0 0 0 0 0 0 0 0 0 0 0 0 0 0 0 0 0 0 -0 0 0 0 0
0 0 0 0 0 0 0 0 0 0 0 0 0 0 0 0 0 0 0 0 0 0 0 0 0 0 0 0 0 0 0 0 0 0 0 0 0 0 0 0 0 0 0 0 0 0 0 -0 -0 -0 0 0 0 0
0 0 0 0 0 0 0 0 0 0 0 0 0 0 0 0 0 0 0 0 0 0 0 0 0 0 0 0 0 0 0 0 0 0 0 0 0 0 0 0 0 0 0 0 0 0 0 0 -0 0 0 0 0 0
0 0 0 0 0 0 0 0 0 0 0 0 0 -0 0 0 0 0 0 0 0 0 0 0 0 0 0 0 0 0 0 0 0 0 0 0 0 0 0 0 0 0 0 0 0 0 0 0 0 0 0 0 0 -0
0 0 0 0 0 0 0 0 0 0 0 0 0 -0 0 0 0 0 0 0 0 0 0 0 0 0 0 0 0 0 0 0 0 0 0 0 0 0 0 0 0 0 0 0 0 0 0 0 0 0 0 0 0 0
0 0 0 0 0 0 0 0 0 0 0 0 -0 -0 -0 0 0 -0 0 0 0 0 0 0 -0 0 0 0 0 0 0 0 0 0 0 0 0 0 0 -0 0 0 0 0 0 0 0 0 0 0 0 0 0 0
0 0 0 0 0 0 0 0 0 0 -0 -0 -0 -0 0 0 0 0 0 0 0 0 0 0 0 0 0 0 0 0 0 0 0 0 0 0 0 0 0 0 0 0 0 -0 0 0 0 0 0 0 0 0 0 0
0 -0 -0 0 0 0 0 0 -0 0 -0 0 0 0 0 0 0 0 0 0 0 0 0 0 0 0 0 0 0 0 0 0 0 0 0 0 0 0 0 0 0 0 0 0 0 0 0 0 0 0 0 0 0 0
-0 -0 0 0 0 0 0 0 0 -0 0 0 0 0 0 0 0 0 0 -0 0 0 0 0 0 0 0 0 0 -0 0 0 0 0 0 -0 0 0 0 0 0 0 0 0 -0 -0 0 0 0 0 0 0 0 0
-0 -0 0 0 0 0 0 0 -0 0 0 0 0 0 0 0 0 -0 -0 -0 0 0 0 0 0 0 0 0 0 0 0 0 0 -0 0 0 -0 0 0 0 0 0 0 -0 -0 -0 0 0 0 -0 0 0 0 0
-0 0 0 0 0 0 0 0 0 0 -0 0 0 0 0 0 -0 -0 0 -0 0 0 0 0 0 0 0 0 0 0 0 0 0 0 0 0 0 -0 0 0 0 -0 -0 -0 -0 0 0 0 -0 0 0 -0 0 -0
0 0 0 0 0 0 0 -0 -0 -0 0 0 0 0 0 0 -0 0 0 0 0 0 0 0 0 0 0 0 0 0 0 0 0 0 0 0 0 0 0 0 -0 -0 -0 -0 0 0 0 0 0 0 0 -0 -0 -0
0 0 0 0 0 0 -0 -0 -0 -0 0 0 0 0 0 0 0 -0 -0 -0 0 0 0 0 0 0 0 0 0 0 0 0 0 0 0 0 -0 0 0 0 0 -0 -0 0 0 0 0 0 0 0 0 0 0 0
0 0 0 0 -0 -0 -0 -0 -0 -0 0 0 0 0 0 -0 -0 0 0 0 0 -0 0 0 0 0 0 0 0 0 0 0 0 0 0 -0 0 0 0 0 0 0 0 0 0 0 0 0 0 0 0 0 0 0
0 0 0 -0 -0 -0 -0 -0 0 0 0 0 0 0 0 0 -0 -0 -0 -0 0 0 0 0 0 0 0 0 0 0 0 0 0 0 -0 -0 -0 0 0 0 0 0 0 0 0 0 0 0 0 0 0 0 0 0
0 0 0 -0 -0 -0 -0 0 0 0 0 0 0 0 0 0 0 -0 -0 0 0 0 0 0 0 0 0 0 0 0 0 0 0 -0 -0 -0 -0 -0 -0 -0 -0 0 0 0 0 0 0 0 0 0 0 0 0 0
0 0 0 0 0 0 0 0 0 0 0 0 0 0 0 0 0 0 0 0 0 0 0 -0 -0 -0 -0 0 0 0 0 0 0 0 0 0 0 -0 0 0 0 0 0 0 0 0 0 0 0 0 0 0 0 0
0 0 0 0 0 0 0 -0 0 -0 0 0 0 0 0 0 0 0 0 0 0 0 0 -0 0 0 0 0 0 0 0 0 -0 0 0 -0 -0 -0 0 0 0 0 0 0 0 0 0 0 0 0 0 0 0 0
-0 0 0 0 0 0 -0 -0 -0 0 0 0 0 0 0 0 0 0 0 0 0 0 0 0 0 0 0 0 0 0 -0 -0 -0 -0 -0 0 -0 -0 0 0 0 0 0 0 0 0 0 0 0 0 0 0 0 0
-0 0 0 0 -0 0 -0 0 -0 0 0 0 0 0 0 0 0 0 0 0 0 0 0 0 0 0 0 0 0 0 0 -0 -0 -0 0 0 0 0 -0 -0 -0 0 0 0 0 0 0 0 0 0 0 0 0 0
0 -0 -0 -0 -0 -0 -0 0 0 0 0 0 0 0 0 0 0 0 0 0 0 0 0 0 0 0 0 0 -0 0 0 0 0 0 0 -0 -0 -0 -0 -0 -0 -0 0 0 0 0 0 0 0 0 0 0 0 0
0 -0 -0 -0 -0 -0 -0 -0 0 -0 0 0 0 0 0 0 0 0 0 0 0 0 0 0 0 0 0 0 0 0 0 0 0 0 0 0 0 -0 -0 -0 0 -0 -0 0 0 0 0 0 0 0 0 0 0 0
-0 -0 0 0 0 -0 -0 0 0 0 0 0 0 0 0 0 0 0 0 0 0 0 0 0 0 0 0 0 0 0 0 0 0 0 0 0 -0 -0 0 0 0 -0 0 0 0 0 0 0 0 0 0 0 0 0
-0 -0 -0 0 -0 -0 -0 0 0 0 0 0 0 0 0 0 0 0 0 0 0 0 0 0 0 0 0 0 0 0 0 0 0 0 0 0 -0 -0 0 0 0 0 0 0 0 0 0 0 0 0 0 0 0 0
-0 0 -0 -0 -0 -0 0 0 0 0 0 0 0 0 0 0 0 0 0 0 0 0 0 0 0 0 0 0 0 0 0 0 0 0 0 0 0 0 -0 -0 -0 -0 -0 -0 0 0 0 0 0 0 0 0 -0 -0
0 0 0 -0 0 0 0 -0 0 0 0 0 0 0 0 0 0 0 0 0 0 0 0 0 0 0 0 0 0 0 0 0 0 0 0 0 0 0 -0 -0 -0 -0 0 0 0 0 0 0 0 0 0 0 0 0
-0 0 -0 -0 0 0 0 0 0 0 0 0 0 0 0 0 0 0 0 0 0 0 0 0 0 0 0 0 0 0 0 0 0 0 0 0 0 0 0 0 0 0 0 0 0 0 0 0 0 0 0 0 0 0
-0 0 -0 -0 -0 0 0 0 0 0 0 0 0 0 0 0 0 0 0 0 0 0 0 0 0 0 0 0 0 0 0 0 0 0 0 0 0 0 0 0 0 0 0 0 0 0 0 0 0 0 0 0 0 0
0 -0 0 0 0 0 0 0 0 0 0 0 0 0 0 0 0 0 0 0 0 0 0 0 0 0 0 0 0 0 0 0 0 0 0 0 0 0 0 0 0 0 0 0 0 0 0 0 0 0 0 0 0 0
-0 -0 0 0 0 0 0 0 0 0 0 0 0 0 0 0 0 0 0 0 0 0 0 0 0 0 0 0 0 0 0 0 0 0 0 0 0 0 0 0 0 0 0 0 0 0 0 0 0 0 0 0 0 0
0 0 0 0 0 0 0 0 0 0 0 0 0 0 0 0 0 0 0 0 0 0 0 0 0 0 0 0 0 0 0 0 0 0 0 0 0 0 0 0 0 0 0 0 0 0 0 0 0 0 0 0 0 0
Wind_Speed_500mb
29 28 23 20 19 22 25 27 30 33 35 35 37 34 28 25 22 19 12 13 14 8 26 17 11 14 13 6 3 15 16 6 9 8 2 4 4 6 6 7 8 11 7 8 5 4 11 21 14 7 15 36 45 54
25 25 21 20 19 21 24 26 29 33 36 35 36 33 26 24 23 20 12 14 19 18 18 28 35 31 30 24 24 8 6 3 6 3 4 4 6 6 3 7 8 5 9 7 12 8 5 16 5 10 32 43 42 54
22 23 20 20 19 21 23 26 29 33 36 36 35 32 23 21 21 21 22 20 23 14 23 10 1 3 8 30 23 14 10 10 6 6 1 5 7 1 5 5 7 6 0 4 6 3 6 16 13 36 49 45 45 44
20 22 21 19 19 21 22 27 31 35 37 37 36 32 22 21 22 21 24 22 16 9 7 9 1 25 36 42 37 41 41 29 26 24 7 5 5 6 6 7 4 9 8 1 8 11 33 15 40 62 55 47 40 34
20 20 18 18 19 21 24 29 34 37 39 39 35 31 22 21 20 17 18 9 6 5 7 25 41 13 12 8 18 32 45 56 44 11 7 7 9 5 7 1 7 8 7 5 7 8 15 37 53 63 47 53 38 37
17 16 15 20 22 22 26 32 37 41 44 40 32 24 21 18 14 13 3 2 3 5 11 8 18 15 14 17 21 26 39 44 35 17 13 19 27 7 6 6 17 13 9 2 5 40 47 55 61 36 40 37 25 29
15 15 17 20 21 24 29 36 42 46 47 35 23 19 15 12 11 7 4 5 7 13 8 11 15 10 26 24 13 23 27 33 30 20 18 27 23 22 6 12 20 23 37 52 45 47 40 31 23 22 21 25 19 26
19 15 15 19 22 27 34 39 45 46 36 23 11 11 7 11 10 6 7 6 11 15 8 5 8 14 10 9 6 8 12 20 22 17 8 15 25 16 11 19 47 62 72 75 76 52 44 39 32 24 16 9 10 31
15 11 15 18 23 30 36 42 43 35 17 5 3 6 7 7 7 13 15 12 9 10 4 5 5 8 8 9 7 12 14 5 12 8 13 16 9 13 16 30 38 38 50 63 47 39 25 31 30 26 15 4 5 1
10 11 16 19 26 31 36 37 31 10 4 4 7 6 2 7 15 14 4 3 5 7 9 8 9 7 14 7 5 10 10 5 6 12 14 9 24 55 55 39 39 45 53 57 45 37 23 36 32 23 12 6 4 12
9 12 16 23 27 31 32 27 13 5 2 5 4 0 10 15 6 3 4 2 1 6 12 16 14 14 17 4 6 9 6 5 6 3 2 5 8 34 71 81 74 58 61 59 57 39 26 34 21 21 14 9 5 14
7 13 20 25 29 32 27 23 9 3 3 5 6 5 6 5 3 3 5 3 4 7 9 8 16 25 4 6 7 8 7 4 6 7 5 7 7 19 17 50 73 92 89 75 65 52 35 38 34 31 32 23 20 22
11 16 21 26 32 32 26 3 2 1 3 2 3 3 3 0 4 3 7 5 6 8 13 24 13 4 3 4 9 5 8 8 6 7 4 6 28 41 27 36 61 78 83 53 53 49 39 37 39 32 36 31 38 41
14 18 22 27 26 23 2 2 3 2 2 4 3 10 4 5 4 6 5 7 26 24 52 46 15 6 6 1 3 7 8 7 6 4 6 12 60 77 48 16 30 42 44 47 53 42 37 31 31 31 39 43 40 38
16 21 26 14 20 7 1 3 4 2 1 1 2 5 5 10 25 22 24 29 40 37 48 27 13 7 4 3 2 6 11 8 7 8 12 52 80 53 43 45 34 22 15 18 24 26 23 21 20 27 32 36 34 36
20 23 11 19 16 3 5 5 4 2 2 3 4 6 14 12 15 18 39 35 38 51 43 7 5 5 1 3 2 6 11 7 8 12 56 75 47 57 55 54 49 39 27 16 8 5 2 9 15 13 15 11 17 23
23 13 22 16 3 9 10 7 1 2 3 3 5 11 19 21 16 27 33 35 38 25 5 6 10 7 8 6 9 8 6 10 43 58 60 54 51 52 46 50 53 42 31 26 16 13 12 8 4 4 2 13 9 9
21 16 10 10 19 15 7 2 1 2 4 5 7 15 19 18 27 32 25 30 18 9 10 7 9 12 8 10 7 11 38 50 43 45 55 60 57 53 48 43 30 33 31 24 21 19 17 19 19 24 23 23 21 17
12 8 15 20 15 6 3 2 3 4 4 8 14 18 10 19 28 33 25 17 13 19 7 8 7 6 5 7 13 30 38 40 34 38 48 50 53 55 53 52 51 43 36 29 26 22 19 17 16 12 12 14 21 21
12 20 18 13 6 3 3 2 3 5 6 9 14 25 13 8 29 34 38 39 30 12 14 7 6 11 11 19 24 27 30 33 35 39 43 47 47 49 50 48 46 42 40 40 36 31 27 26 24 19 17 16 14 13
15 14 9 7 5 6 3 3 1 4 8 8 11 17 10 15 17 22 28 27 21 10 8 12 28 34 25 23 28 33 30 26 25 24 28 34 37 42 42 40 38 38 40 40 38 37 35 34 29 26 23 19 18 17
12 9 5 2 2 1 2 0 3 7 6 9 9 10 5 6 9 12 18 12 5 4 1 8 15 10 13 16 16 17 16 21 24 22 20 27 35 40 41 38 37 36 37 37 35 32 29 25 23 21 18 17 17 17
9 4 2 2 2 1 1 3 3 4 2 5 9 6 4 4 3 7 4 7 6 12 18 21 18 15 11 13 8 4 8 11 12 17 22 29 35 38 33 27 28 31 34 35 33 31 27 25 22 19 17 15 15 15
3 3 1 1 2 1 3 4 4 5 5 3 1 5 4 5 1 3 1 6 13 24 27 17 7 8 9 13 15 13 8 7 5 11 19 27 34 37 33 24 24 26 31 34 33 35 28 21 19 18 19 21 22 24
2 5 4 5 5 2 3 3 4 1 5 7 5 6 7 10 4 2 3 3 15 24 23 19 15 15 13 15 14 15 14 9 14 17 20 27 33 34 29 19 20 28 34 36 34 31 18 20 23 24 27 30 31 33
2 9 12 11 6 8 7 5 8 11 7 7 11 5 9 6 5 3 4 5 10 12 13 15 14 11 11 14 13 13 11 10 10 19 21 27 32 31 26 26 29 31 33 31 30 26 15 12 18 22 26 30 33 35
4 8 11 13 8 6 9 15 10 5 6 8 6 9 7 6 4 3 2 4 6 7 5 9 12 15 15 13 13 15 14 14 20 19 21 24 26 22 26 27 29 31 32 26 23 25 14 7 14 20 23 25 28 30
11 7 8 9 13 14 6 7 6 5 4 6 4 2 3 5 4 3 2 2 7 11 6 11 16 19 15 13 14 17 19 19 19 20 14 18 23 17 24 23 20 24 28 27 23 20 19 15 11 15 17 18 19 21
11 10 13 8 10 8 9 5 4 4 10 3 4 5 3 13 15 9 10 14 15 5 10 15 19 19 13 11 13 20 23 25 26 23 20 25 31 30 24 28 27 24 26 29 27 23 21 18 16 16 17 17 15 16
11 24 10 8 6 7 5 2 7 15 15 8 5 12 17 11 12 16 18 5 4 11 18 21 23 22 20 15 14 16 23 28 26 22 21 21 25 28 29 28 28 27 24 26 28 30 23 23 23 25 26 25 18 15
3 23 7 7 5 7 14 15 9 4 1 4 7 24 20 19 18 12 6 3 9 13 19 22 21 22 22 18 15 18 26 30 33 23 21 16 22 27 28 30 32 30 25 24 25 28 29 31 32 31 30 30 27 25
8 9 9 4 5 14 12 3 1 3 7 7 8 16 14 11 11 11 5 2 6 16 21 21 25 28 26 19 15 19 26 33 36 27 21 24 26 25 30 36 34 29 28 26 25 28 32 32 30 32 32 29 28 32
6 6 6 9 8 10 9 5 2 3 4 5 6 15 20 8 9 11 10 6 12 19 19 22 28 33 30 22 16 21 27 32 31 30 31 27 26 30 36 31 29 28 27 28 30 34 34 34 32 31 31 31 31 31
Wind_Direction_500mb
307 310 295 284 294 310 321 330 337 338 340 342 347 346 340 346 356 1 354 339 339 277 284 261 250 198 186 174 102 320 340 346 342 39 73 278 256 268 304 242 200 169 158 212 146 150 242 356 18 43 293 307 309 334
300 302 290 287 295 306 319 326 333 335 338 339 342 342 335 337 343 348 348 320 310 273 265 276 264 251 228 240 278 244 230 244 251 32 3 311 312 320 298 229 328 240 186 207 183 221 199 14 68 339 341 306 319 330
289 287 280 282 292 305 316 322 329 332 335 337 337 340 329 331 330 334 335 331 337 304 301 289 208 335 209 235 246 217 238 226 227 68 188 246 268 104 277 267 294 284 212 195 2 34 279 310 26 346 340 329 333 333
269 277 275 278 293 304 311 319 327 329 332 333 331 333 314 316 321 322 328 325 321 315 306 283 315 293 284 275 254 242 251 247 262 291 242 227 231 196 255 268 251 248 333 315 282 327 344 130 341 336 334 341 341 350
262 266 267 281 290 300 314 319 322 325 327 327 324 327 309 310 320 319 326 341 354 339 288 293 314 118 322 262 264 254 245 241 245 215 192 218 240 258 222 353 262 233 204 141 222 339 306 294 315 326 328 331 350 356
251 254 266 283 292 306 313 317 319 322 322 319 315 316 306 311 322 329 266 355 332 303 330 313 316 309 305 307 294 260 236 230 211 202 204 224 230 245 264 232 255 253 179 184 272 317 310 302 307 311 314 333 348 16
240 246 266 280 292 308 313 317 320 322 321 317 307 301 300 318 324 308 303 304 296 327 301 297 300 285 308 321 294 277 236 216 215 221 223 224 226 200 212 241 283 266 265 281 292 317 305 307 302 302 319 350 22 50
238 252 269 283 304 310 316 320 323 322 323 319 304 304 324 339 350 43 28 338 273 265 271 286 279 300 264 283 286 274 263 216 216 220 207 191 221 222 248 222 244 262 273 276 278 296 279 291 284 269 294 331 37 53
240 250 275 296 309 315 322 327 325 325 330 337 325 6 63 57 2 328 318 300 276 230 261 236 254 268 302 271 291 285 232 242 230 216 211 186 191 212 227 202 226 240 247 262 279 283 281 263 282 271 257 352 267 315
233 262 284 306 314 322 329 332 338 352 16 55 48 68 38 339 315 322 330 325 214 222 232 257 255 265 264 217 286 280 228 240 235 227 172 201 228 229 234 234 236 237 248 262 275 260 259 265 254 283 242 230 58 66
233 275 303 312 319 326 329 339 345 3 47 49 26 212 290 308 342 304 303 244 188 257 221 240 240 257 283 157 242 266 292 258 252 295 184 254 274 231 228 230 233 234 244 256 262 272 278 260 263 265 309 304 276 37
259 295 311 317 321 323 323 325 318 282 30 353 331 315 333 337 342 4 272 258 201 254 258 222 268 279 159 212 222 265 268 261 287 287 230 278 289 287 277 232 233 234 239 253 260 270 284 249 259 268 302 311 291 292
288 311 317 319 322 327 322 279 262 222 304 40 329 320 325 314 358 321 342 326 275 245 264 304 306 232 145 247 258 267 263 237 343 236 272 260 269 314 312 261 234 234 238 237 253 260 273 280 276 267 306 316 315 307
308 317 316 318 325 334 17 135 151 120 355 338 339 329 143 252 239 247 267 271 302 278 304 310 278 216 154 135 286 268 283 305 286 295 292 323 327 328 348 2 208 218 216 220 241 259 268 273 279 284 307 310 302 309
317 319 319 317 333 326 236 161 157 142 111 338 308 302 242 301 305 300 314 317 322 320 322 307 281 248 118 159 203 294 322 332 324 325 305 314 321 335 22 65 92 111 165 217 238 259 275 280 288 280 298 302 302 305
326 329 321 318 324 236 173 164 166 185 250 264 249 287 307 314 315 333 338 327 335 324 326 271 286 297 111 197 298 14 335 330 296 288 301 307 346 41 42 64 80 91 103 118 135 141 223 278 293 301 306 303 315 312
334 326 314 315 183 144 135 135 167 287 281 259 276 291 308 306 312 327 327 326 322 321 333 339 4 348 296 10 359 350 351 280 302 311 336 25 34 48 55 56 55 61 76 83 95 104 99 124 177 152 142 63 44 33
334 333 328 133 136 136 123 85 10 331 298 276 297 333 344 344 336 344 337 340 327 327 335 15 336 19 5 345 322 321 324 336 8 27 42 46 51 52 57 60 66 59 49 59 71 77 79 87 88 73 68 69 80 91
356 54 119 125 132 121 112 57 22 327 290 321 317 328 317 350 9 12 20 6 61 48 53 30 41 354 337 294 302 352 6 10 7 31 42 47 52 55 61 68 70 69 74 76 85 80 74 73 66 59 53 45 55 58
95 121 118 110 109 94 95 85 342 322 320 318 323 338 339 315 5 35 50 56 60 56 41 38 358 316 323 7 22 15 11 13 19 28 32 34 39 42 45 48 52 58 64 63 59 60 63 65 61 53 43 42 41 29
135 137 132 99 61 63 81 14 14 332 319 313 335 343 331 11 22 14 30 44 54 36 39 24 24 27 28 31 27 15 21 22 19 22 31 36 28 27 27 33 33 37 41 41 43 44 41 40 43 44 38 33 37 34
163 165 167 86 98 82 207 212 288 291 271 279 308 323 299 320 326 355 350 21 46 17 315 331 344 343 357 23 25 1 15 39 54 66 48 31 27 23 22 18 14 24 29 29 25 25 25 24 26 30 34 36 26 21
156 177 172 161 98 24 170 256 259 254 274 297 320 324 278 272 301 352 42 348 329 355 353 351 356 7 26 30 39 66 35 26 41 47 31 20 12 6 7 13 17 17 14 14 10 4 360 1 5 3 4 7 13 11
207 229 208 149 207 186 259 247 241 262 262 258 222 263 244 242 222 36 285 301 3 20 8 354 356 77 52 25 19 17 337 342 3 16 5 1 1 4 1 1 3 7 7 2 5 8 9 23 32 36 37 36 28 24
244 205 205 207 209 230 238 240 233 260 254 210 218 247 207 176 149 203 211 295 26 25 34 55 46 31 48 60 46 31 26 7 339 354 4 3 356 352 0 11 5 5 3 2 6 6 26 43 44 38 32 29 25 19
223 203 188 202 204 187 211 218 213 215 208 215 226 215 179 149 157 211 220 43 25 33 49 42 41 44 31 10 8 3 357 348 341 353 357 355 355 360 11 19 16 15 10 5 3 1 3 22 23 23 21 21 17 15
251 222 229 217 216 224 261 253 251 224 237 218 189 178 181 185 128 70 197 319 346 142 110 44 19 1 353 347 358 2 348 338 342 346 348 356 1 7 8 5 10 10 7 9 10 10 14 29 11 4 9 13 18 19
237 248 223 197 211 220 256 271 212 224 278 334 163 47 36 39 83 190 207 203 178 153 40 19 8 358 336 337 358 10 13 3 348 341 346 10 11 7 14 9 1 359 3 9 5 4 11 17 14 9 9 10 7 1
229 226 207 239 220 222 221 250 292 311 339 357 83 55 59 156 164 156 94 116 127 34 13 12 3 360 334 306 341 356 359 356 344 349 356 2 6 11 3 360 355 350 353 2 6 3 357 351 343 338 337 333 335 346
240 190 205 217 196 217 221 194 110 94 72 83 135 124 144 149 160 154 148 110 16 16 15 4 356 348 343 341 332 341 350 352 346 327 323 342 350 348 349 348 347 343 337 341 349 357 350 346 341 337 337 334 312 319
224 189 224 188 173 164 152 135 117 50 77 135 148 148 133 130 125 128 143 57 20 10 2 2 356 347 345 336 324 334 348 355 351 329 316 301 321 326 334 339 339 336 327 323 324 335 344 347 344 339 339 343 341 332
193 203 186 135 146 174 171 214 167 135 151 160 150 165 160 169 181 194 205 244 333 351 357 355 354 352 343 335 323 329 339 343 345 338 319 312 321 323 326 330 333 333 324 319 315 323 329 329 326 326 322 318 320 324
178 161 132 133 150 176 191 186 128 130 169 186 189 199 198 208 206 211 222 264 319 335 343 344 345 342 335 322 315 317 328 335 339 335 322 311 307 314 325 334 339 337 331 325 318 324 331 332 327 322 312 306 309 313
Wind_Speed_850mb
29 28 23 20 19 22 25 27 30 33 35 35 37 34 28 25 22 19 12 13 14 8 26 17 11 14 13 6 3 15 16 6 9 8 2 4 4 6 6 7 8 11 7 8 5 4 11 21 14 7 15 36 45 54
25 25 21 20 19 21 24 26 29 33 36 35 36 33 26 24 23 20 12 14 19 18 18 28 35 31 30 24 24 8 6 3 6 3 4 4 6 6 3 7 8 5 9 7 12 8 5 16 5 10 32 43 42 54
22 23 20 20 19 21 23 26 29 33 36 36 35 32 23 21 21 21 22 20 23 14 23 10 1 3 8 30 23 14 10 10 6 6 1 5 7 1 5 5 7 6 0 4 6 3 6 16 13 36 49 45 45 44
20 22 21 19 19 21 22 27 31 35 37 37 36 32 22 21 22 21 24 22 16 9 7 9 1 25 36 42 37 41 41 29 26 24 7 5 5 6 6 7 4 9 8 1 8 11 33 15 40 62 55 47 40 34
20 20 18 18 19 21 24 29 34 37 39 39 35 31 22 21 20 17 18 9 6 5 7 25 41 13 12 8 18 32 45 56 44 11 7 7 9 5 7 1 7 8 7 5 7 8 15 37 53 63 47 53 38 37
17 16 15 20 22 22 26 32 37 41 44 40 32 24 21 18 14 13 3 2 3 5 11 8 18 15 14 17 21 26 39 44 35 17 13 19 27 7 6 6 17 13 9 2 5 40 47 55 61 36 40 37 25 29
15 15 17 20 21 24 29 36 42 46 47 35 23 19 15 12 11 7 4 5 7 13 8 11 15 10 26 24 13 23 27 33 30 20 18 27 23 22 6 12 20 23 37 52 45 47 40 31 23 22 21 25 19 26
19 15 15 19 22 27 34 39 45 46 36 23 11 11 7 11 10 6 7 6 11 15 8 5 8 14 10 9 6 8 12 20 22 17 8 15 25 16 11 19 47 62 72 75 76 52 44 39 32 24 16 9 10 31
15 11 15 18 23 30 36 42 43 35 17 5 3 6 7 7 7 13 15 12 9 10 4 5 5 8 8 9 7 12 14 5 12 8 13 16 9 13 16 30 38 38 50 63 47 39 25 31 30 26 15 4 5 1
10 11 16 19 26 31 36 37 31 10 4 4 7 6 2 7 15 14 4 3 5 7 9 8 9 7 14 7 5 10 10 5 6 12 14 9 24 55 55 39 39 45 53 57 45 37 23 36 32 23 12 6 4 12
9 12 16 23 27 31 32 27 13 5 2 5 4 0 10 15 6 3 4 2 1 6 12 16 14 14 17 4 6 9 6 5 6 3 2 5 8 34 71 81 74 58 61 59 57 39 26 34 21 21 14 9 5 14
7 13 20 25 29 32 27 23 9 3 3 5 6 5 6 5 3 3 5 3 4 7 9 8 16 25 4 6 7 8 7 4 6 7 5 7 7 19 17 50 73 92 89 75 65 52 35 38 34 31 32 23 20 22
11 16 21 26 32 32 26 3 2 1 3 2 3 3 3 0 4 3 7 5 6 8 13 24 13 4 3 4 9 5 8 8 6 7 4 6 28 41 27 36 61 78 83 53 53 49 39 37 39 32 36 31 38 41
14 18 22 27 26 23 2 2 3 2 2 4 3 10 4 5 4 6 5 7 26 24 52 46 15 6 6 1 3 7 8 7 6 4 6 12 60 77 48 16 30 42 44 47 53 42 37 31 31 31 39 43 40 38
16 21 26 14 20 7 1 3 4 2 1 1 2 5 5 10 25 22 24 29 40 37 48 27 13 7 4 3 2 6 11 8 7 8 12 52 80 53 43 45 34 22 15 18 24 26 23 21 20 27 32 36 34 36
20 23 11 19 16 3 5 5 4 2 2 3 4 6 14 12 15 18 39 35 38 51 43 7 5 5 1 3 2 6 11 7 8 12 56 75 47 57 55 54 49 39 27 16 8 5 2 9 15 13 15 11 17 23
23 13 22 16 3 9 10 7 1 2 3 3 5 11 19 21 16 27 33 35 38 25 5 6 10 7 8 6 9 8 6 10 43 58 60 54 51 52 46 50 53 42 31 26 16 13 12 8 4 4 2 13 9 9
21 16 10 10 19 15 7 2 1 2 4 5 7 15 19 18 27 32 25 30 18 9 10 7 9 12 8 10 7 11 38 50 43 45 55 60 57 53 48 43 30 33 31 24 21 19 17 19 19 24 23 23 21 17
12 8 15 20 15 6 3 2 3 4 4 8 14 18 10 19 28 33 25 17 13 19 7 8 7 6 5 7 13 30 38 40 34 38 48 50 53 55 53 52 51 43 36 29 26 22 19 17 16 12 12 14 21 21
12 20 18 13 6 3 3 2 3 5 6 9 14 25 13 8 29 34 38 39 30 12 14 7 6 11 11 19 24 27 30 33 35 39 43 47 47 49 50 48 46 42 40 40 36 31 27 26 24 19 17 16 14 13
15 14 9 7 5 6 3 3 1 4 8 8 11 17 10 15 17 22 28 27 21 10 8 12 28 34 25 23 28 33 30 26 25 24 28 34 37 42 42 40 38 38 40 40 38 37 35 34 29 26 23 19 18 17
12 9 5 2 2 1 2 0 3 7 6 9 9 10 5 6 9 12 18 12 5 4 1 8 15 10 13 16 16 17 16 21 24 22 20 27 35 40 41 38 37 36 37 37 35 32 29 25 23 21 18 17 17 17
9 4 2 2 2 1 1 3 3 4 2 5 9 6 4 4 3 7 4 7 6 12 18 21 18 15 11 13 8 4 8 11 12 17 22 29 35 38 33 27 28 31 34 35 33 31 27 25 22 19 17 15 15 15
3 3 1 1 2 1 3 4 4 5 5 3 1 5 4 5 1 3 1 6 13 24 27 17 7 8 9 13 15 13 8 7 5 11 19 27 34 37 33 24 24 26 31 34 33 35 28 21 19 18 19 21 22 24
2 5 4 5 5 2 3 3 4 1 5 7 5 6 7 10 4 2 3 3 15 24 23 19 15 15 13 15 14 15 14 9 14 17 20 27 33 34 29 19 20 28 34 36 34 31 18 20 23 24 27 30 31 33
2 9 12 11 6 8 7 5 8 11 7 7 11 5 9 6 5 3 4 5 10 12 13 15 14 11 11 14 13 13 11 10 10 19 21 27 32 31 26 26 29 31 33 31 30 26 15 12 18 22 26 30 33 35
4 8 11 13 8 6 9 15 10 5 6 8 6 9 7 6 4 3 2 4 6 7 5 9 12 15 15 13 13 15 14 14 20 19 21 24 26 22 26 27 29 31 32 26 23 25 14 7 14 20 23 25 28 30
11 7 8 9 13 14 6 7 6 5 4 6 4 2 3 5 4 3 2 2 7 11 6 11 16 19 15 13 14 17 19 19 19 20 14 18 23 17 24 23 20 24 28 27 23 20 19 15 11 15 17 18 19 21
11 10 13 8 10 8 9 5 4 4 10 3 4 5 3 13 15 9 10 14 15 5 10 15 19 19 13 11 13 20 23 25 26 23 20 25 31 30 24 28 27 24 26 29 27 23 21 18 16 16 17 17 15 16
11 24 10 8 6 7 5 2 7 15 15 8 5 12 17 11 12 16 18 5 4 11 18 21 23 22 20 15 14 16 23 28 26 22 21 21 25 28 29 28 28 27 24 26 28 30 23 23 23 25 26 25 18 15
3 23 7 7 5 7 14 15 9 4 1 4 7 24 20 19 18 12 6 3 9 13 19 22 21 22 22 18 15 18 26 30 33 23 21 16 22 27 28 30 32 30 25 24 25 28 29 31 32 31 30 30 27 25
8 9 9 4 5 14 12 3 1 3 7 7 8 16 14 11 11 11 5 2 6 16 21 21 25 28 26 19 15 19 26 33 36 27 21 24 26 25 30 36 34 29 28 26 25 28 32 32 30 32 32 29 28 32
6 6 6 9 8 10 9 5 2 3 4 5 6 15 20 8 9 11 10 6 12 19 19 22 28 33 30 22 16 21 27 32 31 30 31 27 26 30 36 31 29 28 27 28 30 34 34 34 32 31 31 31 31 31
Wind_Direction_850mb
307 310 295 284 294 310 321 330 337 338 340 342 347 346 340 346 356 1 354 339 339 277 284 261 250 198 186 174 102 320 340 346 342 39 73 278 256 268 304 242 200 169 158 212 146 150 242 356 18 43 293 307 309 334
300 302 290 287 295 306 319 326 333 335 338 339 342 342 335 337 343 348 348 320 310 273 265 276 264 251 228 240 278 244 230 244 251 32 3 311 312 320 298 229 328 240 186 207 183 221 199 14 68 339 341 306 319 330
289 287 280 282 292 305 316 322 329 332 335 337 337 340 329 331 330 334 335 331 337 304 301 289 208 335 209 235 246 217 238 226 227 68 188 246 268 104 277 267 294 284 212 195 2 34 279 310 26 346 340 329 333 333
269 277 275 278 293 304 311 319 327 329 332 333 331 333 314 316 321 322 328 325 321 315 306 283 315 293 284 275 254 242 251 247 262 291 242 227 231 196 255 268 251 248 333 315 282 327 344 130 341 336 334 341 341 350
262 266 267 281 290 300 314 319 322 325 327 327 324 327 309 310 320 319 326 341 354 339 288 293 314 118 322 262 264 254 245 241 245 215 192 218 240 258 222 353 262 233 204 141 222 339 306 294 315 326 328 331 350 356
251 254 266 283 292 306 313 317 319 322 322 319 315 316 306 311 322 329 266 355 332 303 330 313 316 309 305 307 294 260 236 230 211 202 204 224 230 245 264 232 255 253 179 184 272 317 310 302 307 311 314 333 348 16
240 246 266 280 292 308 313 317 320 322 321 317 307 301 300 318 324 308 303 304 296 327 301 297 300 285 308 321 294 277 236 216 215 221 223 224 226 200 212 241 283 266 265 281 292 317 305 307 302 302 319 350 22 50
238 252 269 283 304 310 316 320 323 322 323 319 304 304 324 339 350 43 28 338 273 265 271 286 279 300 264 283 286 274 263 216 216 220 207 191 221 222 248 222 244 262 273 276 278 296 279 291 284 269 294 331 37 53
240 250 275 296 309 315 322 327 325 325 330 337 325 6 63 57 2 328 318 300 276 230 261 236 254 268 302 271 291 285 232 242 230 216 211 186 191 212 227 202 226 240 247 262 279 283 281 263 282 271 257 352 267 315
233 262 284 306 314 322 329 332 338 352 16 55 48 68 38 339 315 322 330 325 214 222 232 257 255 265 264 217 286 280 228 240 235 227 172 201 228 229 234 234 236 237 248 262 275 260 259 265 254 283 242 230 58 66
233 275 303 312 319 326 329 339 345 3 47 49 26 212 290 308 342 304 303 244 188 257 221 240 240 257 283 157 242 266 292 258 252 295 184 254 274 231 228 230 233 234 244 256 262 272 278 260 263 265 309 304 276 37
259 295 311 317 321 323 323 325 318 282 30 353 331 315 333 337 342 4 272 258 201 254 258 222 268 279 159 212 222 265 268 261 287 287 230 278 289 287 277 232 233 234 239 253 260 270 284 249 259 268 302 311 291 292
288 311 317 319 322 327 322 279 262 222 304 40 329 320 325 314 358 321 342 326 275 245 264 304 306 232 145 247 258 267 263 237 343 236 272 260 269 314 312 261 234 234 238 237 253 260 273 280 276 267 306 316 315 307
308 317 316 318 325 334 17 135 151 120 355 338 339 329 143 252 239 247 267 271 302 278 304 310 278 216 154 135 286 268 283 305 286 295 292 323 327 328 348 2 208 218 216 220 241 259 268 273 279 284 307 310 302 309
317 319 319 317 333 326 236 161 157 142 111 338 308 302 242 301 305 300 314 317 322 320 322 307 281 248 118 159 203 294 322 332 324 325 305 314 321 335 22 65 92 111 165 217 238 259 275 280 288 280 298 302 302 305
326 329 321 318 324 236 173 164 166 185 250 264 249 287 307 314 315 333 338 327 335 324 326 271 286 297 111 197 298 14 335 330 296 288 301 307 346 41 42 64 80 91 103 118 135 141 223 278 293 301 306 303 315 312
334 326 314 315 183 144 135 135 167 287 281 259 276 291 308 306 312 327 327 326 322 321 333 339 4 348 296 10 359 350 351 280 302 311 336 25 34 48 55 56 55 61 76 83 95 104 99 124 177 152 142 63 44 33
334 333 328 133 136 136 123 85 10 331 298 276 297 333 344 344 336 344 337 340 327 327 335 15 336 19 5 345 322 321 324 336 8 27 42 46 51 52 57 60 66 59 49 59 71 77 79 87 88 73 68 69 80 91
356 54 119 125 132 121 112 57 22 327 290 321 317 328 317 350 9 12 20 6 61 48 53 30 41 354 337 294 302 352 6 10 7 31 42 47 52 55 61 68 70 69 74 76 85 80 74 73 66 59 53 45 55 58
95 121 118 110 109 94 95 85 342 322 320 318 323 338 339 315 5 35 50 56 60 56 41 38 358 316 323 7 22 15 11 13 19 28 32 34 39 42 45 48 52 58 64 63 59 60 63 65 61 53 43 42 41 29
135 137 132 99 61 63 81 14 14 332 319 313 335 343 331 11 22 14 30 44 54 36 39 24 24 27 28 31 27 15 21 22 19 22 31 36 28 27 27 33 33 37 41 41 43 44 41 40 43 44 38 33 37 34
163 165 167 86 98 82 207 212 288 291 271 279 308 323 299 320 326 355 350 21 46 17 315 331 344 343 357 23 25 1 15 39 54 66 48 31 27 23 22 18 14 24 29 29 25 25 25 24 26 30 34 36 26 21
156 177 172 161 98 24 170 256 259 254 274 297 320 324 278 272 301 352 42 348 329 355 353 351 356 7 26 30 39 66 35 26 41 47 31 20 12 6 7 13 17 17 14 14 10 4 360 1 5 3 4 7 13 11
207 229 208 149 207 186 259 247 241 262 262 258 222 263 244 242 222 36 285 301 3 20 8 354 356 77 52 25 19 17 337 342 3 16 5 1 1 4 1 1 3 7 7 2 5 8 9 23 32 36 37 36 28 24
244 205 205 207 209 230 238 240 233 260 254 210 218 247 207 176 149 203 211 295 26 25 34 55 46 31 48 60 46 31 26 7 339 354 4 3 356 352 0 11 5 5 3 2 6 6 26 43 44 38 32 29 25 19
223 203 188 202 204 187 211 218 213 215 208 215 226 215 179 149 157 211 220 43 25 33 49 42 41 44 31 10 8 3 357 348 341 353 357 355 355 360 11 19 16 15 10 5 3 1 3 22 23 23 21 21 17 15
251 222 229 217 216 224 261 253 251 224 237 218 189 178 181 185 128 70 197 319 346 142 110 44 19 1 353 347 358 2 348 338 342 346 348 356 1 7 8 5 10 10 7 9 10 10 14 29 11 4 9 13 18 19
237 248 223 197 211 220 256 271 212 224 278 334 163 47 36 39 83 190 207 203 178 153 40 19 8 358 336 337 358 10 13 3 348 341 346 10 11 7 14 9 1 359 3 9 5 4 11 17 14 9 9 10 7 1
229 226 207 239 220 222 221 250 292 311 339 357 83 55 59 156 164 156 94 116 127 34 13 12 3 360 334 306 341 356 359 356 344 349 356 2 6 11 3 360 355 350 353 2 6 3 357 351 343 338 337 333 335 346
240 190 205 217 196 217 221 194 110 94 72 83 135 124 144 149 160 154 148 110 16 16 15 4 356 348 343 341 332 341 350 352 346 327 323 342 350 348 349 348 347 343 337 341 349 357 350 346 341 337 337 334 312 319
224 189 224 188 173 164 152 135 117 50 77 135 148 148 133 130 125 128 143 57 20 10 2 2 356 347 345 336 324 334 348 355 351 329 316 301 321 326 334 339 339 336 327 323 324 335 344 347 344 339 339 343 341 332
193 203 186 135 146 174 171 214 167 135 151 160 150 165 160 169 181 194 205 244 333 351 357 355 354 352 343 335 323 329 339 343 345 338 319 312 321 323 326 330 333 333 324 319 315 323 329 329 326 326 322 318 320 324
178 161 132 133 150 176 191 186 128 130 169 186 189 199 198 208 206 211 222 264 319 335 343 344 345 342 335 322 315 317 328 335 339 335 322 311 307 314 325 334 339 337 331 325 318 324 331 332 327 322 312 306 309 313